Regional Weather Roundup
Issued by NWS Boston, MA

Home | Current Version | Previous Version | Text Only | Print | Product List | Glossary On
Versions: 1 2 3 4 5 6 7 8 9 10 11 12 13 14 15 16 17 18 19 20 21 22 23 24 25 26 27 28 29 30 31 32 33 34 35 36 37 38 39 40 41 42 43 44 45 46 47 48 49 50
000
ASUS41 KBOX 301310
RWRBOX

REGIONAL WEATHER ROUNDUP
NATIONAL WEATHER SERVICE TAUNTON MA
900 AM EDT WED JUL 30 2014

NOTE:  "FAIR" INDICATES FEW OR NO CLOUDS BELOW 12,000 FEET WITH NO
SIGNIFICANT WEATHER AND/OR OBSTRUCTIONS TO VISIBILITY.  THE FOLLOWING
OBSERVATION LOCATIONS DO NOT REPORT PRESENT WEATHER...PROVINCETOWN...
SMITHFIELD...BLOCK ISLAND...KEENE...AND OXFORD.

MAZALL-301400-
EASTERN MASSACHUSETTS

CITY           SKY/WX    TMP DP  RH WIND       PRES   REMARKS
BOSTON         PTSUNNY   69  58  67 S3        30.00S
BEVERLY        MOSUNNY   69  60  73 CALM      30.00R
LAWRENCE       PTSUNNY   68  60  75 N3        30.02S
BEDFORD        PTSUNNY   68  59  73 CALM      30.00S
BLUE HILL        N/A     67  57  70 VRB3      30.01S
NORWOOD        SUNNY     69  58  67 CALM      30.00F
MARSHFIELD     SUNNY     72  57  60 CALM      30.01F
PLYMOUTH       SUNNY     70  56  61 CALM      30.01S
TAUNTON        SUNNY     70  57  63 CALM      30.00S
NEW BEDFORD    SUNNY     71  55  56 CALM      30.00S
$$

MAZALL-301400-
CAPE COD AND THE ISLANDS

CITY           SKY/WX    TMP DP  RH WIND       PRES   REMARKS
FALMOUTH       SUNNY     72  61  68 VRB5      30.01S
HYANNIS        SUNNY     73  56  54 W5        29.99S
CHATHAM        SUNNY     73  62  68 VRB3      30.01S
PROVINCETOWN   SUNNY     70  61  73 W5        30.01S
NANTUCKET      SUNNY     67  63  87 S6        30.01R
MARTHAS VNYRD  SUNNY     70  64  81 S5        30.01S
$$

MAZALL-301400-
CENTRAL AND WESTERN MASSACHUSETTS

CITY           SKY/WX    TMP DP  RH WIND       PRES   REMARKS
WORCESTER      MOSUNNY   65  54  67 CALM      30.03S
FITCHBURG      CLOUDY    67  54  63 CALM      30.02S
ORANGE         CLOUDY    62  57  83 CALM      30.03R
SPRINGFIELD    PTSUNNY   61  56  84 CALM      30.03R
WESTFIELD      CLOUDY    62  57  83 CALM      30.03R
NORTH ADAMS    CLOUDY    60  56  86 CALM      30.04S
PITTSFIELD     CLOUDY    60  56  86 CALM      30.04R
$$

RIZALL-301400-
RHODE ISLAND

CITY           SKY/WX    TMP DP  RH WIND       PRES   REMARKS
PROVIDENCE     MOSUNNY   71  53  52 CALM      30.01S
NEWPORT        SUNNY     72  59  63 CALM      30.01S
BLOCK ISLAND   CLOUDY    70  57  64 NE3       30.01S
SMITHFIELD     SUNNY     68  54  60 CALM      30.01F
WESTERLY       SUNNY     69  59  70 CALM      30.02S
$$

CTZALL-301400-
CONNECTICUT

CITY           SKY/WX    TMP DP  RH WIND       PRES   REMARKS
BRADLEY INTL   PTSUNNY   66  55  67 NW3       30.02S
HARTFORD       SUNNY     68  56  65 CALM      30.02S
BRIDGEPORT     SUNNY     70  57  63 N5        30.02S
DANBURY        SUNNY     67  54  63 VRB6      30.05S
GROTON         SUNNY     71  57  61 N3        30.00F
NEW HAVEN      MOSUNNY   71  56  58 N3        30.02S
CHESTER        FAIR      70  55  60 N3        30.03S
MERIDEN        SUNNY     68  55  63 CALM      30.03R
WILLIMANTIC    SUNNY     65  58  78 CALM      30.02F
OXFORD         MOSUNNY   64  54  68 NW5       30.06R
$$

MEZ002-015-021-024-NHZ003-005-008-011-012-014-VTZ005-008-301400-
NORTHERN NEW ENGLAND

CITY           SKY/WX    TMP DP  RH WIND       PRES   REMARKS
PORTLAND ME    CLOUDY    63  59  87 N6        30.02R
BANGOR ME      PTSUNNY   67  56  67 VRB5      30.04S
CONCORD NH     CLOUDY    62  56  80 CALM      30.02S
MANCHESTER NH  CLOUDY    64  55  72 NW5       30.00S
NASHUA NH      PTSUNNY   64  57  78 CALM      30.02S
PORTSMOUTH NH  PTSUNNY   66  58  75 NW3       30.00R
JAFFREY NH     CLOUDY    63  54  72 CALM      30.04S
KEENE NH       CLOUDY    59  48  67 CALM      30.04S
BURLINGTON VT  PTSUNNY   61  54  77 CALM      30.03R
MT. WASHINGTON FOG       43  39  87 SE3         N/A  VSB 1/2
$$

NYZ052-076-301400-
EASTERN NEW YORK

CITY           SKY/WX    TMP DP  RH WIND       PRES   REMARKS
ALBANY         CLOUDY    64  55  72 CALM      30.05R
NEW YORK CITY  SUNNY     70  53  54 VRB5      30.03R
$$

ANZALL-301400-
MARINE OBSERVATIONS

STATION/POSITION TIME  TEMP    WIND        PRES    VSBY  WAVE
                       AIR SEA DIR/SP/G                  HT/PER
                 (UTC) (F)     (DEG/KT/KT) (MB)    (MI)  (FT/S)
BOSTON BUOY      NOT AVBL
BUZZARDS BAY     NOT AVBL
NANTUCKET SOUND  NOT AVBL
MASS BAY-STELLWA NOT AVBL
ISLE OF SHOALS   NOT AVBL
S OF BLOCK IS    NOT AVBL
$$

......................KEY.........................
  SKY/WX - SKY CONDITION/PRESENT WEATHER
  TMP    - TEMPERATURE IN FAHRENHEIT
  DWPT   - DEWPOINT IN FAHRENHEIT
  RH     - RELATIVE HUMIDITY IN PERCENT
  WIND   - DIRECTION AND SPEED IN MPH
  PRES   - MEAN SEA LEVEL PRESSURE IN INCHES OF HG
  WCI    - WIND CHILL INDEX
  VSB    - VISIBILITY IN MILES
  HX     - HEAT INDEX
  TC     - TEMPERATURE IN CELSIUS
  VRB    - VARIABLE WIND DIRECTION
  N/A    - NOT AVAILABLE


USA.gov is the U.S. government's official web portal to all federal, state and local government web resources and services.